COSMOS 1275 DEB, 12649

Orbit data source: Space-Track

COSMOS 1275 DEB, 12649 is space debris in LEO originally from a launch on Thu, 04 Jun 1981 UTC launched from the Plesetsk Missile And Space Complex (PKMTR). Debris objects in space refer to the collection of defunct objects orbiting the Earth. Examples of debris include non-operational satellites, rocket bodies, and fragments generated from explosions, collisions, or faulty payload assembly.

Loading next visibility...
Identifier
12649, 1981-053D
Orbit
LEO
Country
Flag of CISCIS
Related business
Manufacturer
Unknown
Mission
Spacecraft
Bus & Motor
Unknown
Mass
Unknown
Launch date (UTC)
1981-06-04 (45 years ago)
Launch vehicle
Unknown
Launch site
Plesetsk Missile And Space Complex (PKMTR)
Object type
Payload
Rocket body
Debris
Shape & HBR
Unknown shape, 0.2 m
Radar Cross Section
Medium (>0.1 m² and <1 m²)

Expand to show TLE details & history
Last TLE update: 7 hours ago

TLE from 7 hours ago
0 COSMOS 1275 DEB
1 12649U 81053D   26072.92864112  .00000385  00000-0  34487-3 0  9994
2 12649  82.9139 265.4474 0049475  60.0562  53.0788 13.81380167238143
Epoch: 2026-03-13T22:17Z
TLE epoch observation values (Epoch: 2026-03-13T22:17:14.592Z)
Latitude
65.51223°
Longitude
-76.1743°
Altitude
948.618 km
Speed
7.394 km/s
True Right ascension
04h 38m 46s
True Declination
65° 23' 08"
Sunlit
Object was in daylight at epoch
Visualization orbit readout
Latitude
Unknown
Longitude
Unknown
Altitude
Unknown
Speed
Unknown
Apparent Right ascension
Unknown
Apparent Declination
Unknown
Sunlit
N/A
Visualization observer readout
Local Sidereal Time
10:02:17
Azimuth
Unknown
Elevation
Unknown
Doppler factor
Unknown
Orbital elements
Apogee altitude
992.423 km
Perigee altitude
919.85 km
Semi-major axis
7,334.274 km
Eccentricity
0.00495
Inclination
82.9139°
RAAN
265.4474°
Arg. of periapsis
60.0562°
True anomaly
53.53373°
Mean anomaly
53.0788°
Eccentric anomaly
53.3061°
Mean motion
3.45547 °/min
Orbital period
104.18 mins
BSTAR
0.00034487
Loading maneuver chart data...
Computing Atmospheric mass density...
Loading historical data...
Loading historical data...
Loading historical data...
Loading historical data...
Loading historical data...
Loading historical data...
Loading historical data...

Documentation

Showing up to 5 results
|